This is the latest recevied weather packets stored in our database for station/object WA4IKQ. If no packets are shown the sender has not sent any weather packets the latest 10 day(s).
| Time | Temp. | Humidity | Pressure | Rain* | Wind** | Luminosity | Snow |
|---|---|---|---|---|---|---|---|
| 1787495599 | 29.44° C | 74% | 1016.6 hPa | 0 mm | 2.24 m/s, 160° | - | - |
| 1787495469 | 29.44° C | 74% | 1016.6 hPa | 0 mm | 2.24 m/s, 160° | - | - |
| 1787495242 | 29.44° C | 75% | 1016.7 hPa | 0 mm | 1.79 m/s, 248° | - | - |
| 1787495173 | 29.44° C | 75% | 1016.7 hPa | 0 mm | 1.79 m/s, 248° | - | - |
| 1787494980 | 29.44° C | 74% | 1016.6 hPa | 0 mm | 2.24 m/s, 183° | - | - |
| 1787494870 | 29.44° C | 74% | 1016.6 hPa | 0 mm | 2.24 m/s, 183° | - | - |
| 1787494647 | 29.44° C | 75% | 1016.5 hPa | 0 mm | 0.45 m/s, 222° | - | - |
| 1787494574 | 29.44° C | 75% | 1016.5 hPa | 0 mm | 0.45 m/s, 222° | - | - |
| 1787494334 | 29.44° C | 76% | 1016.5 hPa | 0 mm | 2.24 m/s, 195° | - | - |
| 1787494272 | 29.44° C | 76% | 1016.5 hPa | 0 mm | 2.24 m/s, 195° | - | - |
| 1787494049 | 29.44° C | 76% | 1016.6 hPa | 0 mm | 2.68 m/s, 148° | - | - |
| 1787493970 | 29.44° C | 76% | 1016.6 hPa | 0 mm | 2.68 m/s, 148° | - | - |
| 1787493722 | 29.44° C | 77% | 1016.5 hPa | 0 mm | 3.13 m/s, 179° | - | - |
| 1787493668 | 29.44° C | 77% | 1016.5 hPa | 0 mm | 3.13 m/s, 179° | - | - |
| 1787493438 | 28.89° C | 78% | 1016.4 hPa | 0 mm | 2.68 m/s, 184° | - | - |
| 1787493374 | 28.89° C | 78% | 1016.4 hPa | 0 mm | 2.68 m/s, 184° | - | - |
| 1787493157 | 28.89° C | 78% | 1016.4 hPa | 0 mm | 1.79 m/s, 90° | - | - |
| 1787493073 | 28.89° C | 78% | 1016.4 hPa | 0 mm | 1.79 m/s, 90° | - | - |
| 1787492841 | 28.89° C | 79% | 1016.3 hPa | 0 mm | 0.45 m/s, 229° | - | - |
| 1787492778 | 28.89° C | 79% | 1016.3 hPa | 0 mm | 0.45 m/s, 229° | - | - |
| 1787492528 | 28.89° C | 79% | 1016.3 hPa | 0 mm | 1.34 m/s, 181° | - | - |
| 1787492470 | 28.89° C | 79% | 1016.3 hPa | 0 mm | 1.34 m/s, 181° | - | - |
| 1787492235 | 28.89° C | 79% | 1016.3 hPa | 0 mm | 1.79 m/s, 148° | - | - |
| 1787492171 | 28.89° C | 79% | 1016.3 hPa | 0 mm | 1.79 m/s, 148° | - | - |
| 1787491937 | 28.33° C | 80% | 1016.3 hPa | 0 mm | 1.79 m/s, 167° | - | - |
* Rain latest hour (hover to see other rain measurements)
** Current wind speed in m/s (hover to see current wind gust speed)